Other Public Products
Issued by NWS Charleston, SC

Home | Current Version | Previous Version | Text Only | Print | Product List | Glossary Off
Versions: 1 2 3 4 5 6 7 8 9 10 11 12 13 14 15 16 17 18 19 20 21 22 23 24 25 26 27 28 29 30 31 32 33 34 35 36 37 38 39 40 41 42 43 44 45 46 47 48 49 50

000
FPUS82 KCHS 202227
OPUCHS

TEST...KCHS/KSAV Gateway Observations...TEST
National Weather Service Charleston SC
500 PM EST TUE FEB 20 2018

NOTE: "fair" indicates few or no clouds below 12,000 feet with no
significant weather and/or obstructions to visibility.

SCZ050-WAZ558-NCZ071-TXZ119-213-PAZ071-DCZ001-FLZ074-172-MI076-
NYZ176-178-MAZ016-IL014-TNZ027-NJZ106-GAZ044-MD014-202300-

...Gateway Observations for Charleston International...

CITY           SKY/WX    TMP DP  RH WIND       PRES   REMARKS
Chas Airport   PTSUNNY   76  65  68 SE16      30.39S
Seattle        CLOUDY    35  24  64 N3        30.16F
Charlotte      FAIR      74  59  59 SW5       30.38F
Dallas DFW     TSTM      58  56  93 NW21      29.88R VSB 1/2
Dallas Love    LGT RAIN  69  67  93 S13       29.86S FOG
Philladelphia  MOCLDY    71  57  61 S10       30.29R
Wash National  MOCLDY    76  55  48 SW14G25   30.28S
Baltimore      FAIR      75  53  46 S13G21    30.27R
Miami          PTSUNNY   79  70  74 E15G24    30.27R
Detroit        CLOUDY    60  58  92 S7        29.99S
Newark         MOCLDY    68  54  60 SW12      30.28R
Laguardia      MOCLDY    69  53  56 VRB3      30.28R
J F K          MOCLDY    55  50  83 CALM      30.31R
Boston Logan   MOCLDY    69  53  56 SW10      30.20R
Ft. Lauderdale FAIR      79  73  82 E18       30.27R
Chicago O`Hare LGT RAIN  53  50  89 SW8       29.90R
Chicago Midway LGT RAIN  55  55 100 SW9       29.92R
Houston Bush   CLOUDY    78  69  73 S18G25    29.96R
Houston Hobby  CLOUDY    76  72  87 S17G25    29.96S
Nashville      PTSUNNY   78  57  48 S14G23    30.17S
Atlanta        PTSUNNY   74  62  66 SE9       30.31S

$$

GAZ044-118-TXZ119-213-NCZ071-DCZ001-MDZ014-506-PAZ021-071-NJZ106-
NYZ176-178-MAZ106-OHZ011-021-055-MIZ076-KYZ091-ILZ014-INZ047-
MNZ060-ONZ431-202300-

...Gateway Observations for Savannah International...

CITY           SKY/WX    TMP DP  RH WIND       PRES   REMARKS
Savannah Arpt  PTSUNNY   74  67  78 S16       30.37S
Atlanta        PTSUNNY   74  62  66 SE9       30.31S
Charlotte      FAIR      74  59  59 SW5       30.38F
Dallas DFW     TSTM      58  56  93 NW21      29.88R VSB 1/2
Houston Bush   CLOUDY    78  69  73 S18G25    29.96R
Wash National  MOCLDY    76  55  48 SW14G25   30.28S
Wash Dulles    FAIR      74  55  51 S13G21    30.27R
Baltimore      FAIR      75  53  46 S13G21    30.27R
Philadelphia   MOCLDY    71  57  61 S10       30.29R
Newark         MOCLDY    68  54  60 SW12      30.28R
Laguardia      MOCLDY    69  53  56 VRB3      30.28R
J F K          MOCLDY    55  50  83 CALM      30.31R
Boston         MOCLDY    69  53  56 SW10      30.20R
Pittsburg      PTSUNNY   77  50  38 SW14      30.16R
Akron          PTSUNNY   73  54  51 S13       30.13R
Cleveland      PTSUNNY   72  56  57 SW18      30.10S
Cincinnati     CLOUDY    77  55  46 S17G30    30.10R
Columbus       FAIR      73  56  54 S15G21    30.13R
Detroit        CLOUDY    60  58  92 S7        29.99S
Chicago O`Hare LGT RAIN  53  50  89 SW8       29.90R
Minneapolis    FAIR      20  11  68 W15       30.06R WCI   6
Indianapolis   CLOUDY    74  55  51 S22G31    30.01S
Toronto Canada NOT AVBL

$$




USA.gov is the U.S. government's official web portal to all federal, state and local government web resources and services.